FW2285 Weather Reports


Display with metric or nautical units.
time (UTC)temp
F
wind
direction
speed
MPH
gust
MPH
rain 1hr
in
rain 24hr
in
rain mn
in
humidity
%
barometer
mb
20260904111533 73 117 0.0 0.0 0.00 0.00 0.00 63 1013.1
20260904110031 73 117 0.0 0.0 0.00 0.00 0.00 63 1012.9
20260904104532 74 117 0.0 0.0 0.00 0.00 0.00 63 1012.8
20260904103030 74 117 0.0 0.0 0.00 0.00 0.00 63 1012.7
20260904101531 74 117 0.0 0.0 0.00 0.00 0.00 62 1012.5
20260904100026 74 117 0.0 0.0 0.00 0.00 0.00 62 1012.3
20260904094535 74 117 0.0 0.0 0.00 0.00 0.00 62 1012.1
20260904093023 74 117 0.0 0.0 0.00 0.00 0.00 62 1012.2
20260904091522 74 117 0.0 0.0 0.00 0.00 0.00 62 1012.0
20260904090021 75 117 0.0 0.0 0.00 0.00 0.00 62 1011.9
20260904084520 75 117 0.0 0.0 0.00 0.00 0.00 62 1011.7
20260904083032 75 117 0.0 0.0 0.00 0.00 0.00 62 1011.9
20260904081617 75 117 0.0 0.0 0.00 0.00 0.00 61 1011.9
20260904080016 75 117 0.0 0.0 0.00 0.00 0.00 61 1011.8
20260904074514 76 117 0.0 0.0 0.00 0.00 0.00 61 1011.9
20260904073021 76 117 0.0 0.0 0.00 0.00 0.00 60 1011.7
20260904071513 76 117 0.0 0.0 0.00 0.00 0.00 60 1011.6
20260904070011 76 117 0.0 0.0 0.00 0.00 0.00 60 1011.7
20260904064509 76 117 0.0 0.0 0.00 0.00 0.00 60 1011.9
20260904063008 77 117 0.0 0.0 0.00 0.00 0.00 59 1011.8
20260904061506 77 117 0.0 0.0 0.00 0.00 0.00 58 1011.9
20260904060004 77 117 0.0 0.0 0.00 0.00 0.00 58 1011.7
20260904054502 78 117 0.0 0.0 0.00 0.00 0.00 57 1011.7
20260904053100 78 117 0.0 0.0 0.00 0.00 0.00 56 1011.6
20260904051606 79 117 0.0 0.0 0.00 0.00 0.00 55 1011.5
20260904050057 79 117 0.0 0.0 0.00 0.00 0.00 53 1011.4
20260904044555 79 117 0.0 0.0 0.00 0.00 0.00 52 1011.4
20260904043055 80 117 0.0 0.0 0.00 0.00 0.00 52 1011.5
20260904041554 80 117 0.0 0.0 0.00 0.00 0.00 51 1011.4
20260904034555 81 117 0.0 0.0 0.00 0.00 0.00 50 1011.5
20260904033052 82 117 0.0 0.0 0.00 0.00 0.00 49 1011.3
20260904031552 83 117 0.0 0.0 0.00 0.00 0.00 49 1011.4
20260904030056 83 117 0.0 0.0 0.00 0.00 0.00 48 1011.3
20260904024554 83 117 0.0 0.0 0.00 0.00 0.00 49 1011.5
20260904023058 84 117 0.0 1.0 0.00 0.00 0.00 49 1011.1
20260904021551 84 117 0.0 0.0 0.00 0.00 0.00 48 1010.8
20260904020053 85 117 0.0 0.0 0.00 0.00 0.00 47 1010.8
20260904014559 85 117 0.0 0.0 0.00 0.00 0.00 45 1010.7
20260904013049 86 117 0.0 1.0 0.00 0.00 0.00 44 1010.4
20260904011548 87 117 0.0 0.0 0.00 0.00 0.00 44 1010.3
20260904010052 88 117 0.0 1.0 0.00 0.00 0.00 43 1010.1
20260904004547 89 117 0.0 2.0 0.00 0.00 0.00 40 1010.0
20260904003048 91 117 0.0 2.0 0.00 0.00 0.00 37 1010.0
20260904001545 92 117 0.0 2.0 0.00 0.00 0.00 36 1010.0
20260904000045 93 129 0.0 4.0 0.00 0.00 0.00 34 1010.0
20260903234544 94 119 1.0 4.0 0.00 0.00 0.00 33 1009.9
20260903233050 94 127 1.0 7.0 0.00 0.00 0.00 32 1010.0
20260903231548 94 142 0.0 3.0 0.00 0.00 0.00 33 1010.0
20260903230048 95 194 1.0 4.0 0.00 0.00 0.00 32 1010.0
20260903224602 95 126 0.0 5.0 0.00 0.00 0.00 32 1010.1
20260903223042 96 119 1.0 7.0 0.00 0.00 0.00 30 1010.0
20260903221541 96 138 0.0 6.0 0.00 0.00 0.00 32 1010.1
20260903220045 96 156 2.0 7.0 0.00 0.00 0.00 32 1010.2
20260903214545 96 138 2.0 9.0 0.00 0.00 0.00 32 1010.3
20260903213040 96 114 1.0 6.0 0.00 0.00 0.00 32 1010.5
20260903211540 96 119 2.0 7.0 0.00 0.00 0.00 31 1010.4
20260903210046 96 126 0.0 5.0 0.00 0.00 0.00 34 1010.8
20260903204542 96 104 1.0 5.0 0.00 0.00 0.00 31 1010.8
20260903203033 96 100 1.0 4.0 0.00 0.00 0.00 35 1011.1
20260903201538 96 124 1.0 4.0 0.00 0.00 0.00 34 1011.0
20260903200032 96 138 1.0 8.0 0.00 0.00 0.00 36 1011.2
20260903194530 96 128 1.0 8.0 0.00 0.00 0.00 33 1011.3
20260903193028 96 202 0.0 4.0 0.00 0.00 0.00 35 1011.3
20260903191533 95 90 2.0 8.0 0.00 0.00 0.00 32 1011.5
20260903190024 95 91 1.0 7.0 0.00 0.00 0.00 33 1011.5
20260903184521 94 169 2.0 10.0 0.00 0.00 0.00 34 1011.7
20260903183019 95 112 1.0 4.0 0.00 0.00 0.00 35 1012.0
20260903181517 94 132 2.0 6.0 0.00 0.00 0.00 34 1012.2
20260903180015 93 119 2.0 8.0 0.00 0.00 0.00 37 1012.3
20260903174514 93 174 1.0 4.0 0.00 0.00 0.00 40 1012.4
20260903173013 93 225 1.0 7.0 0.00 0.00 0.00 37 1012.7
20260903171510 92 178 1.0 6.0 0.00 0.00 0.00 40 1012.8
20260903170115 91 183 2.0 7.0 0.00 0.00 0.00 41 1012.8
20260903164507 91 227 1.0 5.0 0.00 0.00 0.00 42 1013.0
20260903163004 90 195 1.0 8.0 0.00 0.00 0.00 43 1013.2
20260903161502 90 192 3.0 8.0 0.00 0.00 0.00 42 1013.0
20260903160128 89 116 0.0 4.0 0.00 0.00 0.00 45 1013.2
20260903154608 88 98 1.0 4.0 0.00 0.00 0.00 44 1013.4
20260903153055 88 130 2.0 6.0 0.00 0.00 0.00 44 1013.5
20260903151552 87 208 0.0 5.0 0.00 0.00 0.00 47 1013.5
20260903150049 86 100 2.0 8.0 0.00 0.00 0.00 47 1013.5
20260903144544 85 233 1.0 5.0 0.00 0.00 0.00 48 1013.5
20260903143055 84 142 1.0 7.0 0.00 0.00 0.00 50 1013.5
20260903141550 82 88 1.0 5.0 0.00 0.00 0.00 53 1013.5
20260903140034 80 172 1.0 4.0 0.00 0.00 0.00 54 1013.5
20260903134530 79 105 1.0 7.0 0.00 0.00 0.00 56 1013.7
20260903133031 79 126 1.0 4.0 0.00 0.00 0.00 58 1013.5
20260903131528 79 109 0.0 3.0 0.00 0.00 0.00 59 1013.5
20260903130024 78 138 0.0 2.0 0.00 0.00 0.00 57 1013.5
20260903124522 77 154 0.0 2.0 0.00 0.00 0.00 58 1013.4
20260903123031 76 104 0.0 2.0 0.00 0.00 0.00 59 1013.2
20260903121521 76 120 0.0 2.0 0.00 0.00 0.00 60 1013.1
20260903120121 75 122 0.0 0.0 0.00 0.00 0.00 60 1013.1
20260903114519 75 122 0.0 2.0 0.00 0.00 0.00 59 1012.9
20260903113017 75 120 0.0 0.0 0.00 0.00 0.00 59 1012.7